This is the latest recevied weather packets stored in our database for station/object K7III-13. If no packets are shown the sender has not sent any weather packets the latest 10 day(s).
| Time | Temp. | Humidity | Pressure | Rain* | Wind** | Luminosity | Snow |
|---|---|---|---|---|---|---|---|
| 1788089505 | 78° F | 46% | 752.7 mmHg | - | - | - | - |
| 1788088604 | 78° F | 45% | 752.7 mmHg | - | - | - | - |
| 1788087704 | 79° F | 47% | 752.7 mmHg | - | - | - | - |
| 1788086803 | 78° F | 46% | 752.7 mmHg | - | - | - | - |
| 1788085902 | 79° F | 45% | 752.8 mmHg | - | - | - | - |
| 1788085001 | 79° F | 45% | 752.7 mmHg | - | - | - | - |
| 1788084101 | 79° F | 45% | 752.7 mmHg | - | - | - | - |
| 1788083200 | 79° F | 45% | 752.7 mmHg | - | - | - | - |
| 1788082299 | 79° F | 45% | 752.6 mmHg | - | - | - | - |
| 1788081399 | 78° F | 46% | 752.6 mmHg | - | - | - | - |
| 1788080498 | 78° F | 46% | 752.6 mmHg | - | - | - | - |
| 1788079597 | 79° F | 46% | 752.7 mmHg | - | - | - | - |
| 1788078696 | 79° F | 46% | 752.7 mmHg | - | - | - | - |
| 1788077795 | 79° F | 45% | 752.6 mmHg | - | - | - | - |
| 1788076895 | 79° F | 46% | 752.5 mmHg | - | - | - | - |
| 1788075994 | 79° F | 45% | 752.5 mmHg | - | - | - | - |
| 1788075093 | 81° F | 52% | 752.5 mmHg | - | - | - | - |
| 1788064829 | 83° F | 45% | 752 mmHg | - | - | - | - |
| 1788064659 | 84° F | 45% | 752 mmHg | - | - | - | - |
| 1788063960 | 80° F | 46% | 752 mmHg | - | - | - | - |
| 1788063058 | 80° F | 46% | 751.8 mmHg | - | - | - | - |
| 1788062158 | 84° F | 46% | 751.7 mmHg | - | - | - | - |
| 1787723593 | 82° F | 45% | 750.6 mmHg | - | - | - | - |
| 1787722692 | 84° F | 44% | 750.6 mmHg | - | - | - | - |
| 1787720891 | 82° F | 46% | 750.5 mmHg | - | - | - | - |
* Rain since midnight (hover to see other rain measurements)
** Current wind speed in m/s (hover to see current wind gust speed)